Weather History for Beijing, BJ

Change the Weather History Date:

Saturday, July 21, 2012

  Actual Average Record
Temperature  
Mean Temperature 78 °F -  
Max Temperature 83 °F 86 °F 96 °F (2014)
Min Temperature 73 °F 70 °F 68 °F (2001)
Cooling Degree Days 13    
Growing Degree Days 28 (Base 50)    
Moisture  
Dew Point 76 °F    
Average Humidity 92    
Maximum Humidity 100    
Minimum Humidity 73    
Precipitation  
Precipitation 3.15 in 0.24 in - ()
Sea Level Pressure  
Sea Level Pressure 29.59 in    
Wind  
Wind Speed 5 mph ()    
Max Wind Speed 20 mph    
Max Gust Speed 31 mph    
Visibility 1.3 miles    
Events Rain , Thunderstorm    
Averages and records for this station are not official NWS values.
T = Trace of Precipitation, MM = Missing Value Source: Averaged Metar Reports

Daily Weather History Graph

Daily Weather History Graph

Search for Another Location

Airport:

Trip Planner

Search our weather history database for the weather conditions in past years. The results will help you decide how hot, cold, wet, or windy it might be!

Date:

Astronomy

Jul. 21, 2012 Rise Set
Actual Time 5:02 AM CST 7:37 PM CST
Civil Twilight 4:30 AM CST 8:08 PM CST
Nautical Twilight 3:51 AM CST 8:47 PM CST
Astronomical Twilight 3:07 AM CST 9:31 PM CST
Moon 7:06 AM CST (7/21) 8:31 PM CST (7/21)
Length of Visible Light 15h 38m
Length of Day
14h 35m
Waxing Crescent, 4% of the Moon is Illuminated
Jul 21
Waxing Crescent
Jul 26
First Quarter
Aug 2
Full
Aug 10
Last Quarter
Aug 17
New

Hourly Weather History & Observations

Time (CST) Temp. Heat Index Dew Point Humidity Pressure Visibility Wind Dir Wind Speed Gust Speed Precip Events Conditions
12:00 AM 82.4 °F 90.9 °F 77.0 °F 84% 29.65 in 1.6 mi SE 4.5 mph - N/A   Mist
12:30 AM 82.4 °F 90.9 °F 77.0 °F 84% 29.65 in 1.6 mi SSE 4.5 mph - N/A   Mist
1:00 AM 80.6 °F 87.1 °F 77.0 °F 89% 29.65 in 1.6 mi SE 4.5 mph - N/A   Mist
1:30 AM 80.6 °F 87.1 °F 77.0 °F 89% 29.65 in 1.6 mi SE 2.2 mph - N/A   Mist
2:00 AM 82 °F - 75 °F 75% 29.64 in 2 mi South 4.5 mph - -   Mist
2:00 AM 78.8 °F - 77.0 °F 94% 29.65 in 1.4 mi ESE 4.5 mph - N/A   Mist
2:30 AM 80.6 °F 87.1 °F 77.0 °F 89% 29.65 in 1.2 mi Variable 2.2 mph - N/A   Mist
3:00 AM 78.8 °F - 77.0 °F 94% 29.65 in 1.2 mi SSE 4.5 mph - N/A   Mist
3:30 AM 80.6 °F 87.1 °F 77.0 °F 89% 29.62 in 1.2 mi Variable 2.2 mph - N/A   Mist
4:00 AM 78.8 °F - 77.0 °F 94% 29.62 in 1.2 mi ESE 4.5 mph - N/A   Mist
4:30 AM 78.8 °F - 77.0 °F 94% 29.62 in 1.2 mi ESE 4.5 mph - N/A   Mist
5:00 AM 80 °F - 75 °F 81% 29.63 in 2 mi South 4.5 mph - -   Mist
5:00 AM 78.8 °F - 77.0 °F 94% 29.62 in 1.1 mi ESE 4.5 mph - N/A   Mist
5:30 AM 78.8 °F - 77.0 °F 94% 29.65 in 0.9 mi SE 6.7 mph - N/A   Mist
6:00 AM 78.8 °F - 77.0 °F 94% 29.65 in 0.7 mi SE 6.7 mph - N/A   Mist
6:30 AM 78.8 °F - 77.0 °F 94% 29.65 in 0.7 mi SE 6.7 mph - N/A   Mist
7:00 AM 80.6 °F 87.1 °F 77.0 °F 89% 29.65 in 0.7 mi SE 6.7 mph - N/A   Mist
7:30 AM 80.6 °F 87.1 °F 77.0 °F 89% 29.65 in 0.7 mi ESE 4.5 mph - N/A   Mist
8:00 AM 82 °F - 75 °F 73% 29.66 in 2 mi SSE 2.2 mph - -   Mist
8:00 AM 80.6 °F 87.1 °F 77.0 °F 89% 29.65 in 0.7 mi ESE 4.5 mph - N/A   Mist
8:30 AM 80.6 °F 87.1 °F 77.0 °F 89% 29.65 in 0.7 mi ESE 6.7 mph - N/A   Mist
9:00 AM 82.4 °F 90.9 °F 77.0 °F 84% 29.65 in 0.7 mi ESE 6.7 mph - N/A   Mist
9:30 AM 82.4 °F 90.9 °F 77.0 °F 84% 29.65 in 0.7 mi ESE 6.7 mph - N/A   Mist
10:00 AM 82.4 °F 90.9 °F 77.0 °F 84% 29.65 in 0.7 mi SE 6.7 mph - N/A   Mist
10:30 AM 82.4 °F 90.9 °F 77.0 °F 84% 29.65 in 0.7 mi ESE 6.7 mph - N/A   Mist
11:00 AM 83 °F - 76 °F 75% 29.62 in 1 mi ENE 6.7 mph - - Rain Light Rain Showers
11:00 AM 82.4 °F 90.9 °F 77.0 °F 84% 29.65 in 0.7 mi ESE 4.5 mph - N/A Rain Light Rain
11:30 AM 82.4 °F 90.9 °F 77.0 °F 84% 29.65 in 0.7 mi East 4.5 mph - N/A Rain Light Rain
12:00 PM 82.4 °F 90.9 °F 77.0 °F 84% 29.62 in 0.7 mi East 4.5 mph - N/A Rain Light Rain
12:30 PM 82.4 °F 92.4 °F 78.8 °F 89% 29.59 in 0.7 mi East 4.5 mph - N/A Rain Light Rain
1:00 PM 80.6 °F 87.1 °F 77.0 °F 89% 29.59 in 0.7 mi ENE 6.7 mph - N/A Rain Light Rain Showers
1:30 PM 80.6 °F 87.1 °F 77.0 °F 89% 29.56 in 0.7 mi ENE 6.7 mph - N/A Rain Light Rain Showers
2:00 PM 80 °F - 77 °F 86% 29.55 in 2 mi East 6.7 mph - - Rain Light Rain Showers
2:00 PM 80.6 °F 87.1 °F 77.0 °F 89% 29.56 in 0.7 mi NNE 8.9 mph - N/A Rain , Thunderstorm Light Thunderstorms and Rain
2:30 PM 77.0 °F - 77.0 °F 100% 29.56 in 0.7 mi Variable 4.5 mph - N/A Rain , Thunderstorm Light Thunderstorms and Rain
3:00 PM 75.2 °F - 75.2 °F 100% 29.56 in 1.1 mi ENE 8.9 mph - N/A Rain , Thunderstorm Light Thunderstorms and Rain
3:30 PM 75.2 °F - 75.2 °F 100% 29.56 in 1.1 mi NE 13.4 mph - N/A Rain , Thunderstorm Light Thunderstorms and Rain
4:00 PM 75.2 °F - 73.4 °F 94% 29.53 in 1.0 mi NNE 6.7 mph - N/A Rain Light Rain Showers
4:30 PM 75.2 °F - 73.4 °F 94% 29.56 in 0.7 mi NNE 6.7 mph - N/A Rain Rain Showers
5:00 PM 77 °F - 76 °F 94% 29.51 in 3 mi ENE 8.9 mph - - Rain Light Rain Showers
5:00 PM 75.2 °F - 73.4 °F 94% 29.53 in 0.7 mi NNE 8.9 mph - N/A Rain Light Rain Showers
5:30 PM 75.2 °F - 75.2 °F 100% 29.50 in 0.8 mi NE 8.9 mph - N/A Rain , Thunderstorm Light Thunderstorms and Rain
6:00 PM 75.2 °F - 75.2 °F 100% 29.53 in 0.9 mi NNE 6.7 mph - N/A Rain , Thunderstorm Thunderstorms and Rain
6:30 PM 75.2 °F - 75.2 °F 100% 29.53 in 1.6 mi North 13.4 mph - N/A Rain , Thunderstorm Thunderstorms and Rain
7:00 PM 73.4 °F - 73.4 °F 100% 29.56 in 1.1 mi WNW 20.1 mph 31.3 mph N/A Rain , Thunderstorm Heavy Thunderstorms and Rain
7:30 PM 73.4 °F - 73.4 °F 100% 29.53 in 1.4 mi NNE 8.9 mph - N/A Rain , Thunderstorm Thunderstorms and Rain
8:00 PM 75.2 °F - 75.2 °F 100% 29.53 in 1.1 mi Variable 2.2 mph - N/A Rain , Thunderstorm Heavy Thunderstorms and Rain
8:30 PM 75.2 °F - 75.2 °F 100% 29.50 in 3.1 mi SSW 6.7 mph - N/A Rain , Thunderstorm Light Thunderstorms and Rain
9:00 PM 73.4 °F - 73.4 °F 100% 29.50 in 3.7 mi ENE 4.5 mph - N/A Rain , Thunderstorm Light Thunderstorms and Rain
9:30 PM 73.4 °F - 73.4 °F 100% 29.53 in 2.2 mi North 4.5 mph - N/A Rain , Thunderstorm Light Thunderstorms and Rain
10:00 PM 73.4 °F - 73.4 °F 100% 29.50 in 1.6 mi Variable 2.2 mph - N/A Rain , Thunderstorm Light Thunderstorms and Rain
10:30 PM 73.4 °F - 73.4 °F 100% 29.50 in 1.7 mi Variable 2.2 mph - N/A Rain , Thunderstorm Light Thunderstorms and Rain
11:00 PM 75 °F - 75 °F 99% 29.49 in 2 mi North 2.2 mph - - Rain Light Rain Showers
11:00 PM 73.4 °F - 73.4 °F 100% 29.50 in 2.5 mi East 4.5 mph - N/A Rain Light Rain Showers
11:30 PM 73.4 °F - 73.4 °F 100% 29.47 in 3.1 mi East 4.5 mph - N/A Rain Light Rain Showers